• In Hungary
  • List of Countries
  • For 7 days
  • Water Temperature
  • Satellite Maps
  • Weather Map
  • News
  • Weather Widgets
  • user-avatar
    Login

    Hourly Weather Galezinowo

    Today, 16 October, Tuesday

    Time Temperature Precipitation Wind Pressure Humidity
    00:00 +14°C° 0 mm 4 mps 760 mmHg 58%
    01:00 +14°C° 0 mm 4 mps 760 mmHg 61%
    02:00 +14°C° 0 mm 4 mps 760 mmHg 64%
    03:00 +13°C° 0 mm 3 mps 760 mmHg 66%
    04:00 +13°C° 0 mm 3 mps 760 mmHg 68%
    05:00 +13°C° 0 mm 3 mps 760 mmHg 69%
    06:00 +12°C° 0 mm 3 mps 760 mmHg 69%
    07:00 +12°C° 0 mm 3 mps 760 mmHg 68%
    08:00 +14°C° 0 mm 3 mps 761 mmHg 62%
    09:00 +17°C° 0 mm 3 mps 761 mmHg 56%
    10:00 +18°C° 0 mm 3 mps 761 mmHg 50%
    11:00 +20°C° 0 mm 3 mps 761 mmHg 47%
    12:00 +21°C° 0 mm 2 mps 761 mmHg 44%
    13:00 +23°C° 0 mm 2 mps 761 mmHg 41%
    14:00 +22°C° 0 mm 1 mps 761 mmHg 44%
    15:00 +21°C° 0 mm 1 mps 761 mmHg 47%
    16:00 +21°C° 0 mm 1 mps 761 mmHg 49%
    17:00 +20°C° 0 mm 1 mps 761 mmHg 52%
    18:00 +18°C° 0 mm 1 mps 761 mmHg 54%
    19:00 +16°C° 0 mm 2 mps 761 mmHg 56%
    20:00 +16°C° 0 mm 2 mps 761 mmHg 57%
    21:00 +15°C° 0 mm 2 mps 761 mmHg 58%
    22:00 +15°C° 0 mm 2 mps 762 mmHg 59%
    23:00 +15°C° 0 mm 2 mps 761 mmHg 60%

    Tomorrow, 17 October, Wednesday

    Time Temperature Precipitation Wind Pressure Humidity
    00:00 +14°C° 0 mm 2 mps 761 mmHg 61%
    01:00 +14°C° 0 mm 2 mps 761 mmHg 62%
    02:00 +14°C° 0 mm 2 mps 761 mmHg 63%
    03:00 +14°C° 0 mm 2 mps 761 mmHg 65%
    04:00 +13°C° 0 mm 2 mps 761 mmHg 66%
    05:00 +13°C° 0 mm 2 mps 761 mmHg 67%
    06:00 +13°C° 0 mm 2 mps 762 mmHg 68%
    07:00 +13°C° 0 mm 2 mps 762 mmHg 70%
    08:00 +15°C° 0 mm 2 mps 762 mmHg 64%
    09:00 +16°C° 0 mm 2 mps 762 mmHg 59%
    10:00 +18°C° 0 mm 2 mps 762 mmHg 54%
    11:00 +19°C° 0 mm 2 mps 762 mmHg 51%
    12:00 +20°C° 0 mm 2 mps 762 mmHg 47%
    13:00 +22°C° 0 mm 1 mps 762 mmHg 44%
    14:00 +22°C° 0 mm 1 mps 762 mmHg 47%
    15:00 +21°C° 0 mm 1 mps 761 mmHg 50%
    16:00 +20°C° 0 mm 1 mps 761 mmHg 52%
    17:00 +19°C° 0 mm 1 mps 761 mmHg 55%
    18:00 +18°C° 0 mm 1 mps 761 mmHg 57%
    19:00 +16°C° 0 mm 2 mps 761 mmHg 60%
    20:00 +16°C° 0 mm 2 mps 761 mmHg 60%
    21:00 +15°C° 0 mm 2 mps 761 mmHg 60%
    22:00 +15°C° 0 mm 2 mps 761 mmHg 60%
    23:00 +15°C° 0 mm 2 mps 761 mmHg 61%

    Day after tomorrow, 18 October, Thursday

    Time Temperature Precipitation Wind Pressure Humidity
    00:00 +14°C° 0 mm 2 mps 761 mmHg 61%
    01:00 +14°C° 0 mm 2 mps 761 mmHg 62%
    02:00 +14°C° 0 mm 2 mps 761 mmHg 63%
    03:00 +13°C° 0 mm 2 mps 761 mmHg 63%
    04:00 +13°C° 0 mm 2 mps 760 mmHg 64%
    05:00 +13°C° 0 mm 2 mps 760 mmHg 65%
    06:00 +13°C° 0 mm 2 mps 760 mmHg 66%
    07:00 +13°C° 0 mm 2 mps 760 mmHg 66%
    08:00 +14°C° 0 mm 2 mps 760 mmHg 64%
    09:00 +15°C° 0 mm 2 mps 760 mmHg 61%
    10:00 +17°C° 0 mm 2 mps 760 mmHg 58%
    11:00 +18°C° 0 mm 2 mps 760 mmHg 56%
    12:00 +19°C° 0 mm 3 mps 760 mmHg 54%
    13:00 +19°C° 0 mm 3 mps 760 mmHg 52%
    14:00 +19°C° 0 mm 3 mps 760 mmHg 56%
    15:00 +18°C° 0 mm 3 mps 760 mmHg 60%
    16:00 +17°C° 0 mm 3 mps 760 mmHg 64%
    17:00 +16°C° 0.1 mm 3 mps 760 mmHg 71%
    18:00 +14°C° 0.1 mm 3 mps 761 mmHg 78%
    19:00 +13°C° 0.1 mm 3 mps 761 mmHg 85%
    20:00 +13°C° 0.1 mm 3 mps 761 mmHg 86%
    21:00 +13°C° 0.1 mm 3 mps 761 mmHg 88%
    22:00 +13°C° 0.1 mm 4 mps 762 mmHg 89%
    23:00 +13°C° 0.1 mm 4 mps 762 mmHg 89%

    19 October, Friday

    Time Temperature Precipitation Wind Pressure Humidity
    00:00 +12°C° 0.1 mm 4 mps 762 mmHg 89%
    01:00 +12°C° 0.1 mm 4 mps 762 mmHg 89%
    02:00 +11°C° 0 mm 4 mps 762 mmHg 90%
    03:00 +11°C° 0 mm 3 mps 762 mmHg 92%
    04:00 +11°C° 0 mm 3 mps 762 mmHg 94%
    05:00 +10°C° 0 mm 3 mps 763 mmHg 93%
    06:00 +10°C° 0 mm 3 mps 763 mmHg 92%
    07:00 +10°C° 0 mm 3 mps 763 mmHg 92%
    08:00 +11°C° 0 mm 3 mps 763 mmHg 84%
    09:00 +12°C° 0 mm 3 mps 764 mmHg 76%
    10:00 +13°C° 0 mm 3 mps 764 mmHg 68%
    11:00 +14°C° 0 mm 3 mps 764 mmHg 65%
    12:00 +15°C° 0 mm 2 mps 764 mmHg 62%
    13:00 +15°C° 0 mm 2 mps 764 mmHg 59%
    14:00 +15°C° 0 mm 2 mps 764 mmHg 62%
    15:00 +14°C° 0 mm 2 mps 764 mmHg 64%
    16:00 +13°C° 0 mm 2 mps 764 mmHg 66%
    17:00 +12°C° 0 mm 2 mps 764 mmHg 72%
    18:00 +10°C° 0 mm 2 mps 764 mmHg 78%
    19:00 +9°C° 0 mm 2 mps 764 mmHg 83%
    20:00 +10°C° 0 mm 1 mps 764 mmHg 85%
    21:00 +9°C° 0 mm 1 mps 764 mmHg 87%
    22:00 +9°C° 0 mm 1 mps 765 mmHg 89%
    23:00 +8°C° 0 mm 1 mps 764 mmHg 89%

    20 October, Saturday

    Time Temperature Precipitation Wind Pressure Humidity
    00:00 +7°C° 0 mm 2 mps 764 mmHg 90%
    01:00 +7°C° 0 mm 2 mps 764 mmHg 90%
    02:00 +7°C° 0 mm 2 mps 764 mmHg 90%
    03:00 +7°C° 0 mm 2 mps 764 mmHg 89%
    04:00 +5°C° 0 mm 3 mps 764 mmHg 89%
    05:00 +5°C° 0 mm 3 mps 764 mmHg 89%
    06:00 +5°C° 0 mm 3 mps 764 mmHg 89%
    07:00 +5°C° 0 mm 3 mps 764 mmHg 88%
    08:00 +8°C° 0.1 mm 3 mps 764 mmHg 82%
    09:00 +8°C° 0.1 mm 4 mps 764 mmHg 76%
    10:00 +11°C° 0.1 mm 4 mps 764 mmHg 69%
    11:00 +11°C° 0.1 mm 4 mps 764 mmHg 67%
    12:00 +11°C° 0.1 mm 4 mps 764 mmHg 66%
    13:00 +11°C° 0.1 mm 4 mps 764 mmHg 64%
    14:00 +11°C° 0 mm 4 mps 764 mmHg 66%
    15:00 +10°C° 0 mm 3 mps 764 mmHg 67%
    16:00 +10°C° 0 mm 3 mps 764 mmHg 69%
    17:00 +9°C° 0.2 mm 3 mps 764 mmHg 74%
    18:00 +9°C° 0.2 mm 2 mps 764 mmHg 79%
    19:00 +8°C° 0.2 mm 2 mps 764 mmHg 84%
    20:00 +8°C° 0.1 mm 2 mps 764 mmHg 86%
    21:00 +8°C° 0.1 mm 2 mps 765 mmHg 89%
    22:00 +7°C° 0.1 mm 2 mps 765 mmHg 91%
    23:00 +8°C° 0 mm 1 mps 765 mmHg 92%

    21 October, Sunday

    Time Temperature Precipitation Wind Pressure Humidity
    00:00 +8°C° 0 mm 1 mps 765 mmHg 93%
    01:00 +8°C° 0 mm 1 mps 765 mmHg 94%
    02:00 +8°C° 0 mm 1 mps 765 mmHg 93%
    03:00 +7°C° 0 mm 1 mps 765 mmHg 93%
    04:00 +7°C° 0 mm 1 mps 765 mmHg 93%
    05:00 +7°C° 0 mm 1 mps 766 mmHg 93%
    06:00 +7°C° 0 mm 1 mps 766 mmHg 93%
    07:00 +6°C° 0 mm 2 mps 766 mmHg 93%
    08:00 +8°C° 0 mm 2 mps 766 mmHg 87%
    09:00 +10°C° 0 mm 2 mps 766 mmHg 80%
    10:00 +12°C° 0 mm 2 mps 767 mmHg 74%
    11:00 +13°C° 0 mm 2 mps 766 mmHg 70%
    12:00 +14°C° 0 mm 2 mps 766 mmHg 67%
    13:00 +13°C° 0 mm 3 mps 766 mmHg 63%
    14:00 +13°C° 0 mm 3 mps 766 mmHg 66%
    15:00 +12°C° 0 mm 3 mps 766 mmHg 68%
    16:00 +12°C° 0 mm 3 mps 765 mmHg 71%
    17:00 +10°C° 0 mm 4 mps 765 mmHg 77%
    18:00 +8°C° 0 mm 4 mps 765 mmHg 82%
    19:00 +7°C° 0 mm 4 mps 765 mmHg 88%
    20:00 +7°C° 0 mm 5 mps 765 mmHg 89%
    21:00 +7°C° 0 mm 5 mps 765 mmHg 90%
    22:00 +7°C° 0 mm 5 mps 765 mmHg 90%
    23:00 +5°C° 0 mm 6 mps 764 mmHg 89%
    Show more